| time (UTC) | temp F | wind direction | speed MPH | gust MPH | rain 1hr in | rain 24hr in | rain mn in | humidity % | barometer mb |
| 20260831134548 | 64 | 0 | 0.0 | 2.0 | 0.00 | 0.00 | 0.00 | 97 | 1020.5 |
| 20260831133050 | 64 | 0 | 0.0 | 2.0 | 0.00 | 0.00 | 0.00 | 99 | 1020.6 |
| 20260831131544 | 63 | 37 | 0.0 | 2.0 | 0.00 | 0.00 | 0.00 | 99 | 1020.6 |
| 20260831130053 | 63 | 0 | 0.0 | 3.0 | 0.00 | 0.00 | 0.00 | 99 | 1020.6 |
| 20260831124555 | 62 | 0 | 1.0 | 3.0 | 0.00 | 0.00 | 0.00 | 99 | 1020.7 |
| 20260831123054 | 62 | 29 | 0.0 | 2.0 | 0.00 | 0.00 | 0.00 | 99 | 1020.8 |
| 20260831121545 | 62 | 0 | 0.0 | 1.0 | 0.00 | 0.00 | 0.00 | 99 | 1020.8 |
| 20260831120054 | 62 | 0 | 0.0 | 3.0 | 0.00 | 0.00 | 0.00 | 99 | 1020.6 |
| 20260831114555 | 62 | 0 | 1.0 | 2.0 | 0.00 | 0.00 | 0.00 | 99 | 1020.6 |
| 20260831113045 | 61 | 0 | 0.0 | 3.0 | 0.00 | 0.00 | 0.00 | 99 | 1020.4 |
| 20260831111556 | 61 | 0 | 0.0 | 0.0 | 0.00 | 0.00 | 0.00 | 99 | 1020.5 |
| 20260831110052 | 61 | 0 | 0.0 | 1.0 | 0.00 | 0.00 | 0.00 | 99 | 1020.2 |
| 20260831104548 | 61 | 0 | 0.0 | 2.0 | 0.00 | 0.00 | 0.00 | 99 | 1019.9 |
| 20260831103045 | 61 | 0 | 0.0 | 1.0 | 0.00 | 0.00 | 0.00 | 99 | 1019.8 |
| 20260831101552 | 61 | 0 | 0.0 | 0.0 | 0.00 | 0.00 | 0.00 | 99 | 1019.8 |
| 20260831100114 | 61 | 0 | 0.0 | 0.0 | 0.00 | 0.00 | 0.00 | 99 | 1019.7 |
| 20260831094547 | 61 | 0 | 0.0 | 0.0 | 0.00 | 0.00 | 0.00 | 99 | 1019.6 |
| 20260831093045 | 61 | 0 | 0.0 | 0.0 | 0.00 | 0.00 | 0.00 | 99 | 1019.3 |
| 20260831091553 | 61 | 0 | 0.0 | 0.0 | 0.00 | 0.00 | 0.00 | 98 | 1019.4 |
| 20260831090049 | 61 | 0 | 0.0 | 0.0 | 0.00 | 0.00 | 0.00 | 98 | 1019.1 |
| 20260831084619 | 61 | 0 | 0.0 | 1.0 | 0.00 | 0.00 | 0.00 | 98 | 1019.3 |
| 20260831083054 | 61 | 0 | 0.0 | 0.0 | 0.00 | 0.00 | 0.00 | 98 | 1019.5 |
| 20260831081552 | 61 | 0 | 0.0 | 0.0 | 0.00 | 0.00 | 0.00 | 98 | 1019.4 |
| 20260831074558 | 61 | 0 | 0.0 | 0.0 | 0.00 | 0.00 | 0.00 | 98 | 1019.3 |
| 20260831073053 | 61 | 0 | 0.0 | 0.0 | 0.00 | 0.00 | 0.00 | 98 | 1019.1 |
| 20260831071600 | 62 | 0 | 0.0 | 0.0 | 0.00 | 0.00 | 0.00 | 98 | 1019.1 |
| 20260831070050 | 62 | 0 | 0.0 | 0.0 | 0.00 | 0.00 | 0.00 | 98 | 1019.2 |
| 20260831064557 | 62 | 0 | 0.0 | 3.0 | 0.00 | 0.00 | 0.00 | 98 | 1019.0 |
| 20260831063050 | 62 | 271 | 0.0 | 5.0 | 0.00 | 0.00 | 0.00 | 98 | 1019.1 |
| 20260831061549 | 62 | 271 | 1.0 | 4.0 | 0.00 | 0.00 | 0.00 | 98 | 1019.1 |
| 20260831060059 | 62 | 0 | 0.0 | 3.0 | 0.00 | 0.00 | 0.00 | 98 | 1019.0 |
| 20260831054546 | 61 | 0 | 0.0 | 2.0 | 0.00 | 0.00 | 0.00 | 97 | 1018.8 |
| 20260831053104 | 62 | 0 | 0.0 | 4.0 | 0.00 | 0.00 | 0.00 | 98 | 1019.0 |
| 20260831051554 | 61 | 0 | 0.0 | 0.0 | 0.00 | 0.00 | 0.00 | 97 | 1019.0 |
| 20260831050108 | 61 | 0 | 0.0 | 0.0 | 0.00 | 0.00 | 0.00 | 96 | 1018.9 |
| 20260831044551 | 62 | 0 | 0.0 | 2.0 | 0.00 | 0.00 | 0.00 | 97 | 1019.1 |
| 20260831043053 | 62 | 0 | 0.0 | 3.0 | 0.00 | 0.00 | 0.00 | 97 | 1019.0 |
| 20260831041600 | 62 | 0 | 0.0 | 4.0 | 0.00 | 0.00 | 0.00 | 96 | 1019.0 |
| 20260831040048 | 63 | 0 | 0.0 | 4.0 | 0.00 | 0.00 | 0.00 | 97 | 1019.0 |
| 20260831034548 | 63 | 0 | 2.0 | 7.0 | 0.00 | 0.00 | 0.00 | 96 | 1019.1 |
| 20260831033106 | 63 | 250 | 0.0 | 5.0 | 0.00 | 0.00 | 0.00 | 96 | 1019.2 |
| 20260831031554 | 63 | 295 | 0.0 | 7.0 | 0.00 | 0.00 | 0.00 | 96 | 1019.3 |
| 20260831030051 | 63 | 278 | 0.0 | 4.0 | 0.00 | 0.00 | 0.00 | 96 | 1019.4 |
| 20260831024548 | 64 | 0 | 1.0 | 5.0 | 0.00 | 0.00 | 0.00 | 96 | 1019.3 |
| 20260831023044 | 63 | 276 | 1.0 | 6.0 | 0.00 | 0.00 | 0.00 | 95 | 1019.3 |
| 20260831021549 | 63 | 0 | 0.0 | 4.0 | 0.00 | 0.00 | 0.00 | 95 | 1019.1 |
| 20260831020050 | 64 | 271 | 2.0 | 6.0 | 0.00 | 0.00 | 0.00 | 94 | 1019.0 |
| 20260831014557 | 64 | 281 | 1.0 | 7.0 | 0.00 | 0.00 | 0.00 | 93 | 1019.1 |
| 20260831013056 | 64 | 281 | 1.0 | 6.0 | 0.00 | 0.00 | 0.00 | 93 | 1019.1 |
| 20260831011553 | 64 | 285 | 1.0 | 6.0 | 0.00 | 0.00 | 0.00 | 93 | 1018.9 |
| 20260831010106 | 64 | 0 | 0.0 | 6.0 | 0.00 | 0.00 | 0.00 | 93 | 1018.8 |
| 20260831004548 | 64 | 281 | 1.0 | 4.0 | 0.00 | 0.00 | 0.00 | 94 | 1018.8 |
| 20260831003103 | 64 | 0 | 0.0 | 3.0 | 0.00 | 0.00 | 0.00 | 94 | 1018.6 |
| 20260831001550 | 64 | 0 | 0.0 | 3.0 | 0.00 | 0.00 | 0.00 | 94 | 1018.5 |
| 20260831000052 | 64 | 0 | 1.0 | 4.0 | 0.00 | 0.00 | 0.00 | 94 | 1018.1 |
| 20260830234553 | 64 | 280 | 1.0 | 6.0 | 0.00 | 0.00 | 0.00 | 94 | 1017.9 |
| 20260830233050 | 64 | 0 | 0.0 | 5.0 | 0.00 | 0.00 | 0.00 | 93 | 1017.8 |
| 20260830231600 | 65 | 344 | 0.0 | 4.0 | 0.00 | 0.00 | 0.00 | 91 | 1017.5 |
| 20260830230050 | 65 | 0 | 0.0 | 4.0 | 0.00 | 0.00 | 0.00 | 90 | 1017.4 |
| 20260830224606 | 65 | 298 | 2.0 | 8.0 | 0.00 | 0.00 | 0.00 | 89 | 1017.5 |
| 20260830223148 | 66 | 281 | 1.0 | 6.0 | 0.00 | 0.00 | 0.00 | 88 | 1017.7 |
| 20260830221548 | 67 | 279 | 2.0 | 6.0 | 0.00 | 0.00 | 0.00 | 86 | 1017.9 |
| 20260830220055 | 67 | 0 | 1.0 | 8.0 | 0.00 | 0.00 | 0.00 | 85 | 1017.9 |
| 20260830214549 | 68 | 288 | 2.0 | 8.0 | 0.00 | 0.00 | 0.00 | 83 | 1017.8 |
| 20260830213043 | 69 | 288 | 3.0 | 9.0 | 0.00 | 0.00 | 0.00 | 82 | 1017.7 |
| 20260830211548 | 70 | 286 | 2.0 | 8.0 | 0.00 | 0.00 | 0.00 | 79 | 1017.4 |
| 20260830210100 | 71 | 277 | 1.0 | 6.0 | 0.00 | 0.00 | 0.00 | 77 | 1017.4 |
| 20260830204550 | 71 | 0 | 0.0 | 8.0 | 0.00 | 0.00 | 0.00 | 76 | 1017.3 |
| 20260830203053 | 72 | 0 | 0.0 | 4.0 | 0.00 | 0.00 | 0.00 | 77 | 1017.3 |
| 20260830201550 | 73 | 0 | 1.0 | 6.0 | 0.00 | 0.00 | 0.00 | 75 | 1017.2 |
| 20260830200105 | 74 | 81 | 1.0 | 6.0 | 0.00 | 0.00 | 0.00 | 73 | 1017.3 |
| 20260830194601 | 75 | 0 | 1.0 | 7.0 | 0.00 | 0.00 | 0.00 | 71 | 1017.2 |
| 20260830193053 | 76 | 157 | 1.0 | 9.0 | 0.00 | 0.00 | 0.00 | 70 | 1017.1 |
| 20260830191557 | 77 | 202 | 2.0 | 8.0 | 0.00 | 0.00 | 0.00 | 70 | 1017.1 |
| 20260830190051 | 75 | 0 | 0.0 | 6.0 | 0.00 | 0.00 | 0.00 | 71 | 1017.4 |
| 20260830184553 | 75 | 0 | 1.0 | 5.0 | 0.00 | 0.00 | 0.00 | 71 | 1017.7 |
| 20260830183053 | 76 | 101 | 1.0 | 6.0 | 0.00 | 0.00 | 0.00 | 71 | 1017.7 |
| 20260830181552 | 75 | 266 | 1.0 | 7.0 | 0.00 | 0.00 | 0.00 | 74 | 1017.9 |
| 20260830180049 | 74 | 271 | 1.0 | 4.0 | 0.00 | 0.00 | 0.00 | 75 | 1018.1 |
| 20260830174554 | 73 | 0 | 0.0 | 5.0 | 0.00 | 0.00 | 0.00 | 76 | 1018.2 |
| 20260830173106 | 72 | 0 | 0.0 | 4.0 | 0.00 | 0.00 | 0.00 | 76 | 1018.2 |
| 20260830171551 | 72 | 0 | 0.0 | 4.0 | 0.00 | 0.00 | 0.00 | 73 | 1018.4 |
| 20260830170056 | 71 | 0 | 0.0 | 3.0 | 0.00 | 0.00 | 0.00 | 73 | 1018.6 |
| 20260830164559 | 72 | 0 | 1.0 | 5.0 | 0.00 | 0.00 | 0.00 | 73 | 1018.7 |
| 20260830163057 | 72 | 0 | 0.0 | 3.0 | 0.00 | 0.00 | 0.00 | 71 | 1018.8 |
| 20260830161611 | 72 | 0 | 0.0 | 0.0 | 0.00 | 0.00 | 0.00 | 74 | 1018.8 |
| 20260830160049 | 71 | 0 | 0.0 | 1.0 | 0.00 | 0.00 | 0.00 | 75 | 1019.2 |
| 20260830154550 | 70 | 0 | 0.0 | 0.0 | 0.00 | 0.00 | 0.00 | 74 | 1019.5 |
| 20260830153053 | 70 | 0 | 0.0 | 0.0 | 0.00 | 0.00 | 0.00 | 76 | 1019.6 |
| 20260830151550 | 69 | 0 | 0.0 | 0.0 | 0.00 | 0.00 | 0.00 | 79 | 1019.7 |
| 20260830150107 | 68 | 0 | 0.0 | 0.0 | 0.00 | 0.00 | 0.00 | 78 | 1019.7 |
| 20260830144545 | 68 | 0 | 0.0 | 0.0 | 0.00 | 0.00 | 0.00 | 81 | 1019.6 |
| 20260830143052 | 68 | 0 | 0.0 | 0.0 | 0.00 | 0.00 | 0.00 | 79 | 1019.6 |
| 20260830141549 | 67 | 0 | 0.0 | 0.0 | 0.00 | 0.00 | 0.00 | 82 | 1019.6 |
| 20260830140049 | 67 | 0 | 0.0 | 0.0 | 0.00 | 0.00 | 0.00 | 80 | 1019.7 |